Cosmos 1300 Rocket - Orbit

View from above orbital plane
View from above orbital plane
View from above satellite
View from above satellite

Ground track
Ground track

The orbit data is extracted from the following two-line orbital elements,

1 12786U 81082B   13138.54545117  .00000520  00000-0  59801-4 0  5698
2 12786 082.4882 291.8588 0019299 131.4304 296.2801 14.83765886713695
Epoch (UTC): 18 May 2013 13:05:26
Eccentricity: 0.0019299
inclination: 82.4882°
perigee height: 604 km
apogee height: 631 km
right ascension of ascending node: 291.8588°
argument of perigee: 131.4304°
revolutions per day: 14.83765886
mean anomaly at epoch: 296.2801°
orbit number at epoch: 71369

The dashed part of the orbit path shows where the satellite is in the earth's shadow,  

Developed and maintained by Chris Peat, Heavens-Above GmbH. Please read the updated FAQ before sending e-mail. Imprint. DLR